Location: Acheville
(50.3840°N, 2.8827°E)
Time: 01:09:29
(UTC+00:00)

FENGYUN 1C DEB - Pass Details

Date: 12 February 2023
Orbit: 634 x 940 km, 98.3° (Epoch: 28 March)

Event Time Altitude Azimuth Distance (km) Brightness Sun altitude
Rises 05:36:50 0° 24° (NNE) 2,961 ? -14.7°
Reaches altitude 10° 05:39:18 10° 37° (NE) 2,065 ? -14.3°
Maximum altitude 05:43:06 27° 95° (E) 1,297 ? -13.7°
Drops below altitude 10° 05:47:02 10° 153° (SSE) 2,154 ? -13.0°
Sets 05:49:40 0° 165° (SSE) 3,116 ? -12.6°
